Preview of NWS' New Version of Forecast
This preview is not operational and should not be used for support decisions.

Regional Weather Roundup (RWR)

Issued by National Weather Service (NWS)

                            
000
ASUS45 KCYS 181310
RWRWY 

WYOMING REGIONAL WEATHER ROUNDUP
NATIONAL WEATHER SERVICE CHEYENNE WY
700 AM MDT TUE JUN 18 2019

NOTE:  "FAIR" INDICATES FEW OR NO CLOUDS BELOW 12,000 FEET
WITH NO SIGNIFICANT WEATHER AND/OR OBSTRUCTIONS TO VISIBILITY.

WYZ001-181400-
YELLOWSTONE NATIONAL PARK
  
CITY           SKY/WX    TMP DP  RH WIND       PRES   REMARKS
LK YELLOWSTONE NOT AVBL                                               
W YELLOWSTONE  NOT AVBL                                               

$$
WYZ002>013-054>058-071-098>099-181400-
NORTHERN WYOMING
  
CITY           SKY/WX    TMP DP  RH WIND       PRES   REMARKS
JACKSON        CLOUDY    43  41  93 W3        30.21R                  
CODY           PTSUNNY   56  47  71 SW8       30.08F                  
GREYBULL       FAIR      59  51  75 CALM      30.03S                  
WORLAND        PTSUNNY   57  53  86 CALM      30.05R                  
SHERIDAN       FAIR      56  50  80 CALM      30.03R                  
BUFFALO        FAIR      54  47  77 S3        30.06R                  
GILLETTE       PTSUNNY   54  54 100 S6        30.04F                  
NEWCASTLE      FAIR      55  50  82 E12       30.09                   

$$
WYZ014>020-022>026-101>103-181400-
CENTRAL WYOMING
  
CITY           SKY/WX    TMP DP  RH WIND       PRES   REMARKS
BIG PINEY      PTSUNNY   46  42  86 NW7       30.21S                  
PINEDALE       FAIR      45  41  87 NW5       30.21                   
DUBOIS         CLOUDY    41  37  87 W12       30.18                   
LANDER         FAIR      53  47  79 W6        30.11R                  
RIVERTON       FAIR      53  52  96 W3        30.11S                  
CASPER         FAIR      53  52  96 W6        30.09S                  
DOUGLAS        CLOUDY    55  54  96 S3        30.10R                  

$$
WYZ021-027>030-104>119-181400-
SOUTHERN WYOMING
  
CITY           SKY/WX    TMP DP  RH WIND       PRES   REMARKS
EVANSTON       FAIR      46  42  86 SW6       30.21S                  
KEMMERER       FAIR      45  39  81 N7        30.22                   
FORT BRIDGER   SUNNY     52  45  76 W7        30.24R                  
ROCK SPRINGS   PTSUNNY   49  48  97 SW3       30.18R                  
DIXON          CLOUDY    51  47  84 MISG      30.21R                  
RAWLINS        PTSUNNY   51  48  89 W3        30.17R                  
SARATOGA       CLOUDY    50  48  93 CALM      30.19R                  
LARAMIE        PTSUNNY   49  46  90 S6        30.16S                  
CHEYENNE       CLOUDY    52  50  93 S3        30.14R                  
TORRINGTON     CLOUDY    55  55 100 SE6       30.07R                  
PINE BLUFFS    CLOUDY    54  54 100 NW3       30.11R                  

$$
  

000
ASUS45 KCYS 181310
RWRWY 

WYOMING REGIONAL WEATHER ROUNDUP
NATIONAL WEATHER SERVICE CHEYENNE WY
700 AM MDT TUE JUN 18 2019

NOTE:  "FAIR" INDICATES FEW OR NO CLOUDS BELOW 12,000 FEET
WITH NO SIGNIFICANT WEATHER AND/OR OBSTRUCTIONS TO VISIBILITY.

WYZ001-181400-
...YELLOWSTONE NATIONAL PARK...
  
CITY           SKY/WX    TMP DP  RH WIND       PRES   REMARKS
LK YELLOWSTONE NOT AVBL                                               
W YELLOWSTONE  NOT AVBL                                               

$$
WYZ002>013-054>058-071-098>099-181400-
...NORTHERN WYOMING...
  
CITY           SKY/WX    TMP DP  RH WIND       PRES   REMARKS
JACKSON        CLOUDY    43  41  93 W3        30.21R                  
CODY           PTSUNNY   56  47  71 SW8       30.08F                  
GREYBULL       CLOUDY    59  51  75 CALM      30.03S                  
WORLAND        PTSUNNY   57  53  86 CALM      30.05R                  
SHERIDAN       PTSUNNY   56  50  80 CALM      30.03R                  
BUFFALO        MOSUNNY   54  47  77 S3        30.06R                  
GILLETTE       PTSUNNY   54  54 100 S6        30.04F                  
HULETT         NOT AVBL                                               
NEWCASTLE      FAIR      55  50  82 E12       30.09R                  

$$
WYZ014>020-022>026-101>103-181400-
...CENTRAL WYOMING...
  
CITY           SKY/WX    TMP DP  RH WIND       PRES   REMARKS
BIG PINEY      PTSUNNY   46  42  86 NW7       30.21S                  
PINEDALE       MOSUNNY   45  41  87 NW5       30.21S                  
DUBOIS         CLOUDY    41  37  87 W12       30.18S                  
LANDER         MOSUNNY   53  47  79 W6        30.11R                  
RIVERTON       MOSUNNY   53  52  96 W3        30.11S                  
CASPER         PTSUNNY   53  52  96 W6        30.09S                  
DOUGLAS        CLOUDY    55  54  96 S3        30.10R                  

$$
WYZ021-027>030-104>119-181400-
...SOUTHERN WYOMING...
  
CITY           SKY/WX    TMP DP  RH WIND       PRES   REMARKS
EVANSTON       MOSUNNY   46  42  86 SW6       30.21S                  
KEMMERER       SUNNY     45  41  87 N9        30.22R                  
FORT BRIDGER   SUNNY     52  45  76 W7        30.24R                  
ROCK SPRINGS   PTSUNNY   49  48  97 SW3       30.18R                  
DIXON          CLOUDY    51  47  84 MISG      30.21R                  
RAWLINS        PTSUNNY   51  48  89 W3        30.17R                  
SARATOGA       CLOUDY    50  48  93 CALM      30.19R                  
LARAMIE        PTSUNNY   49  46  90 S6        30.16S                  
CHEYENNE       CLOUDY    52  50  93 S3        30.14R                  
TORRINGTON     CLOUDY    55  55 100 SE6       30.07R                  
PINE BLUFFS    CLOUDY    54  54 100 NW3       30.11R                  

$$